Location: Helsinki
(60.1699°N, 24.9384°E)
Time: 22:15:38
(UTC+03:00)

Transit 2A Rocket - All Passes

Search period start: 02 October 2022 00:00
Search period end: 12 October 2022 00:00
Orbit: 593 x 908 km, 66.7° (Epoch: 02 October)

Date Brightness Start Highest point End Pass type
(mag) Time Alt. Az. Time Alt. Az. Time Alt. Az.
02 Oct - 07:33:51 10° S 07:37:40 32° ESE 07:41:34 10° ENE daylight
02 Oct - 09:15:34 10° WSW 09:19:53 73° NW 09:24:24 10° NE daylight
02 Oct - 10:58:51 10° WNW 11:02:58 38° N 11:07:18 10° ENE daylight
02 Oct - 12:42:03 10° NW 12:46:19 42° NNE 12:50:53 10° E daylight
02 Oct - 14:24:39 10° NW 14:29:15 89° SW 14:34:15 10° SE daylight
02 Oct - 16:07:28 10° WNW 16:11:23 27° WSW 16:15:34 10° S daylight
03 Oct - 06:51:45 10° SSE 06:55:02 21° ESE 06:58:22 10° ENE daylight
03 Oct - 08:32:38 10° SW 08:36:57 83° SE 08:41:27 10° NE daylight
03 Oct - 10:15:41 10° W 10:19:51 42° NNW 10:24:14 10° NE daylight
03 Oct - 11:59:01 10° WNW 12:03:11 38° N 12:07:39 10° ENE daylight
03 Oct - 13:41:45 10° NW 13:46:18 70° NNE 13:51:14 10° ESE daylight
03 Oct - 15:24:22 10° WNW 15:28:41 38° SW 15:33:19 10° SSE daylight
04 Oct - 06:10:12 10° SE 06:12:29 14° ESE 06:14:47 10° E visible
04 Oct - 07:49:52 10° SSW 07:54:06 59° SE 07:58:30 10° NE daylight
04 Oct - 09:32:31 10° W 09:36:45 50° NNW 09:41:13 10° NE daylight
04 Oct - 11:15:56 10° WNW 11:20:03 36° N 11:24:26 10° ENE daylight
04 Oct - 12:58:49 10° NW 13:03:17 56° NNE 13:08:07 10° ESE daylight
04 Oct - 14:41:23 10° NW 14:45:54 54° SW 14:50:49 10° SSE daylight
04 Oct - 16:25:01 10° WNW 16:27:37 15° WSW 16:30:19 10° SW daylight
05 Oct - 07:07:18 10° SSW 07:11:20 40° SE 07:15:29 10° ENE daylight
05 Oct - 08:49:25 10° WSW 08:53:43 62° NNW 08:58:15 10° NE daylight
05 Oct - 10:32:47 10° WNW 10:36:54 37° N 10:41:16 10° ENE daylight
05 Oct - 12:15:52 10° NW 12:20:14 46° NNE 12:24:55 10° E daylight
05 Oct - 13:58:26 10° NW 14:03:03 75° SW 14:08:04 10° SE daylight
05 Oct - 15:41:27 10° WNW 15:45:02 21° WSW 15:48:49 10° SSW daylight
06 Oct - 06:25:00 10° S 06:28:38 27° ESE 06:32:23 10° ENE visible
06 Oct - 08:06:25 10° SW 08:10:44 82° NW 08:15:17 10° NE daylight
06 Oct - 09:49:37 10° W 09:53:46 39° NNW 09:58:08 10° ENE daylight
06 Oct - 11:32:52 10° WNW 11:37:07 40° NNE 11:41:41 10° E daylight
06 Oct - 13:15:31 10° NW 13:20:07 82° NE 13:25:09 10° SE daylight
06 Oct - 14:58:14 10° WNW 15:02:22 31° WSW 15:06:48 10° S daylight
07 Oct - 05:43:04 10° SSE 05:46:02 18° ESE 05:49:03 10° ENE visible
07 Oct - 07:23:32 10° SW 07:27:50 74° SE 07:32:20 10° NE daylight
07 Oct - 09:06:27 10° W 09:10:38 45° NNW 09:15:05 10° NE daylight
07 Oct - 10:49:48 10° WNW 10:53:59 37° N 10:58:26 10° ENE daylight
07 Oct - 12:32:36 10° NW 12:37:09 64° NNE 12:42:05 10° ESE daylight
07 Oct - 14:15:11 10° WNW 14:19:37 44° SW 14:24:26 10° SSE daylight
07 Oct - 15:59:41 10° W 16:01:10 11° WSW 16:02:42 10° SW daylight
08 Oct - 05:01:55 10° SE 05:03:31 12° ESE 05:05:08 10° E visible
08 Oct - 06:40:50 10° SSW 06:45:00 51° SE 06:49:21 10° NE visible
08 Oct - 08:23:18 10° WSW 08:27:34 54° NNW 08:32:05 10° NE daylight
08 Oct - 10:06:42 10° WNW 10:10:49 37° N 10:15:14 10° ENE daylight
08 Oct - 11:49:39 10° NW 11:54:07 52° NNE 11:58:56 10° E daylight
08 Oct - 13:32:12 10° NW 13:36:49 62° SW 13:41:49 10° SSE daylight
08 Oct - 15:15:32 10° WNW 15:18:38 17° WSW 15:21:54 10° SSW daylight
09 Oct - 05:58:21 10° S 06:02:16 34° SE 06:06:19 10° ENE visible
09 Oct - 07:40:13 10° WSW 07:44:33 69° NNW 07:49:07 10° NE daylight
09 Oct - 09:23:32 10° WNW 09:27:41 38° N 09:32:04 10° ENE daylight
09 Oct - 11:06:41 10° NW 11:11:02 44° NNE 11:15:42 10° E daylight
09 Oct - 12:49:17 10° NW 12:53:55 84° SW 12:59:00 10° SE daylight
09 Oct - 14:32:09 10° WNW 14:36:01 25° WSW 14:40:09 10° S daylight
10 Oct - 05:16:11 10° S 05:19:37 23° ESE 05:23:07 10° ENE visible
10 Oct - 06:57:15 10° SW 07:01:35 89° SSE 07:06:09 10° NE visible
10 Oct - 08:40:21 10° W 08:44:32 41° NNW 08:48:59 10° ENE daylight
10 Oct - 10:23:39 10° WNW 10:27:54 39° N 10:32:27 10° E daylight
10 Oct - 12:06:21 10° NW 12:10:59 75° NE 12:16:00 10° ESE daylight
10 Oct - 13:49:00 10° WNW 13:53:19 36° SW 13:57:58 10° S daylight
11 Oct - 04:34:28 10° SSE 04:37:02 16° ESE 04:39:39 10° ENE visible
11 Oct - 06:14:27 10° SW 06:18:43 64° SE 06:23:12 10° NE visible
11 Oct - 07:57:11 10° W 08:01:25 48° NNW 08:05:56 10° NE daylight
11 Oct - 09:40:34 10° WNW 09:44:45 37° N 09:49:13 10° ENE daylight
11 Oct - 11:23:25 10° NW 11:27:59 59° NNE 11:32:54 10° ESE daylight
11 Oct - 13:05:59 10° NW 13:10:33 50° SW 13:15:30 10° SSE daylight
11 Oct - 14:49:49 10° W 14:52:13 14° WSW 14:54:41 10° SW daylight
